Change the Weather History Date:

Tuesday, August 13, 2013

  Actual Average Record
Temperature  
Mean Temperature 66 °F 74 °F  
Max Temperature 78 °F 85 °F 96 °F (2010)
Min Temperature 53 °F 63 °F 51 °F (2004)
Degree Days  
Heating Degree Days 0 0  
Month to date heating degree days 0 0  
Since 1 June heating degree days 18 18  
Since 1 July heating degree days 4 1  
Cooling Degree Days 1 9  
Month to date cooling degree days 92 121  
Year to date cooling degree days 709 770  
Since 1 June cooling degree days 597 683  
Growing Degree Days 16 (Base 50)    
Moisture  
Dew Point 58 °F    
Average Humidity 66    
Maximum Humidity 90    
Minimum Humidity 41    
Precipitation  
Precipitation 0.00 in 0.10 in 0.36 in (2010)
Month to date precipitation 0.02 1.19  
Year to date precipitation 26.37 23.85  
Sea Level Pressure  
Sea Level Pressure 30.04 in    
Wind  
Wind Speed 9 mph (NNE)    
Max Wind Speed 16 mph    
Max Gust Speed 21 mph    
Visibility 9 miles    
Events      
T = Trace of Precipitation, MM = Missing Value Source: NWS Daily Summary

Daily Weather History Graph

Daily Weather History Graph

Search for Another Location

Airport or City:

Trip Planner

Search our weather history database for the weather conditions in past years. The results will help you decide how hot, cold, wet, or windy it might be!

Date:

Astronomy

Aug. 13, 2013 Rise Set
Actual Time 6:05 AM CDT 7:54 PM CDT
Civil Twilight 5:36 AM CDT 8:23 PM CDT
Nautical Twilight 5:01 AM CDT 8:58 PM CDT
Astronomical Twilight 4:23 AM CDT 9:35 PM CDT
Moon 12:59 PM CDT (8/13) 11:29 PM CDT (8/13)
Length of Visible Light 14h 46m
Length of Day
13h 48m
Waxing Crescent, 42% of the Moon is Illuminated
Aug 13
Waxing Crescent
Aug 14
First Quarter
Aug 20
Full
Aug 28
Last Quarter
Sep 5
New

Hourly Weather History & Observations

Time (CDT) Temp. Dew Point Humidity Pressure Visibility Wind Dir Wind Speed Gust Speed Precip Events Conditions
12:54 AM 70.0 °F 66.9 °F 90% 29.93 in 6.0 mi NW 8.1 mph - N/A   Clear
1:54 AM 70.0 °F 64.0 °F 81% 29.92 in 10.0 mi NW 11.5 mph - N/A   Clear
2:54 AM 69.1 °F 63.0 °F 81% 29.92 in 8.0 mi NNW 9.2 mph - N/A   Clear
3:54 AM 66.9 °F 62.1 °F 84% 29.93 in 10.0 mi North 10.4 mph - N/A   Clear
4:54 AM 64.9 °F 61.0 °F 87% 29.94 in 9.0 mi North 9.2 mph - N/A   Clear
5:54 AM 64.0 °F 60.1 °F 87% 29.96 in 10.0 mi North 6.9 mph - N/A   Clear
6:54 AM 64.0 °F 60.1 °F 87% 29.99 in 7.0 mi North 4.6 mph - N/A   Clear
7:54 AM 66.9 °F 63.0 °F 87% 30.00 in 3.0 mi NNE 11.5 mph - N/A   Clear
8:54 AM 69.1 °F 63.0 °F 81% 30.02 in 6.0 mi NE 12.7 mph - N/A   Haze
9:17 AM 69.8 °F 62.6 °F 78% 30.04 in 7.0 mi NE 11.5 mph - N/A   Mostly Cloudy
9:54 AM 70.0 °F 63.0 °F 78% 30.05 in 9.0 mi NE 9.2 mph - N/A   Overcast
10:25 AM 69.8 °F 62.6 °F 78% 30.08 in 10.0 mi NE 10.4 mph - N/A   Overcast
10:54 AM 71.1 °F 61.0 °F 70% 30.07 in 10.0 mi NNE 9.2 mph - N/A   Overcast
11:54 AM 71.1 °F 60.1 °F 68% 30.08 in 10.0 mi NE 10.4 mph - N/A   Overcast
12:46 PM 75.2 °F 60.8 °F 61% 30.09 in 10.0 mi North 6.9 mph - N/A   Mostly Cloudy
12:54 PM 75.9 °F 59.0 °F 56% 30.07 in 10.0 mi NNE 10.4 mph 17.3 mph N/A   Mostly Cloudy
1:54 PM 77.0 °F 57.9 °F 52% 30.07 in 10.0 mi North 12.7 mph 18.4 mph N/A   Partly Cloudy
2:54 PM 77.0 °F 55.0 °F 47% 30.07 in 10.0 mi NNE 11.5 mph - N/A   Partly Cloudy
3:54 PM 75.9 °F 52.0 °F 43% 30.06 in 10.0 mi North 13.8 mph - N/A   Partly Cloudy
4:54 PM 75.9 °F 53.1 °F 45% 30.06 in 10.0 mi NNE 12.7 mph - N/A   Scattered Clouds
5:54 PM 73.0 °F 48.9 °F 42% 30.06 in 10.0 mi North 9.2 mph - N/A   Clear
6:54 PM 70.0 °F 48.9 °F 47% 30.06 in 10.0 mi North 8.1 mph 18.4 mph N/A   Clear
7:54 PM 64.0 °F 50.0 °F 60% 30.08 in 10.0 mi North 8.1 mph - N/A   Clear
8:54 PM 62.1 °F 50.0 °F 65% 30.10 in 10.0 mi North 6.9 mph - N/A   Clear
9:54 PM 57.0 °F 51.1 °F 81% 30.14 in 10.0 mi NE 6.9 mph - N/A   Clear
10:54 PM 55.9 °F 51.1 °F 84% 30.14 in 10.0 mi ENE 3.5 mph - N/A   Clear
11:54 PM 55.0 °F 50.0 °F 83% 30.16 in 10.0 mi Calm Calm - N/A   Clear